Weather History for Bullhead City, AZ

Change the Weather History Date:

Wednesday, September 25, 2013

  Actual Average Record
Temperature  
Mean Temperature 83 °F -  
Max Temperature 95 °F 96 °F 108 °F (1989)
Min Temperature 71 °F 73 °F 62 °F (1988)
Cooling Degree Days 18    
Growing Degree Days 33 (Base 50)    
Moisture  
Dew Point 34 °F    
Average Humidity 18    
Maximum Humidity 31    
Minimum Humidity 9    
Precipitation  
Precipitation 0.00 in - - ()
Sea Level Pressure  
Sea Level Pressure 29.59 in    
Wind  
Wind Speed 10 mph (SE)    
Max Wind Speed 28 mph    
Max Gust Speed 38 mph    
Visibility 10 miles    
Events      
Averages and records for this station are not official NWS values.
T = Trace of Precipitation, MM = Missing Value Source: NWS Daily Summary

Daily Weather History Graph

Daily Weather History Graph

Search for Another Location

Airport:

Trip Planner

Search our weather history database for the weather conditions in past years. The results will help you decide how hot, cold, wet, or windy it might be!

Date:

Astronomy

Sep. 25, 2013 Rise Set
Actual Time 6:28 AM MST 6:30 PM MST
Civil Twilight 6:03 AM MST 6:55 PM MST
Nautical Twilight 5:33 AM MST 7:24 PM MST
Astronomical Twilight 5:04 AM MST 7:54 PM MST
Moon 10:51 PM MST (9/25) 12:26 PM MST (9/25)
Length of Visible Light 12h 52m
Length of Day
12h 01m
Waning Gibbous, 63% of the Moon is Illuminated
Sep 25
Waning Gibbous
Sep 26
Last Quarter
Oct 4
New
Oct 11
First Quarter
Oct 18
Full

Hourly Weather History & Observations

Time (MST) Temp. Dew Point Humidity Pressure Visibility Wind Dir Wind Speed Gust Speed Precip Events Conditions
12:15 AM 77.0 °F 32.0 °F 19% 29.72 in 10.0 mi Calm Calm - N/A   Clear
12:35 AM 75.2 °F 32.0 °F 21% 29.72 in 10.0 mi SE 3.5 mph - N/A   Clear
12:55 AM 77.0 °F 33.8 °F 21% 29.72 in 10.0 mi East 5.8 mph - N/A   Clear
1:15 AM 75.2 °F 33.8 °F 22% 29.72 in 10.0 mi East 6.9 mph - N/A   Clear
1:35 AM 77.0 °F 32.0 °F 19% 29.72 in 10.0 mi East 6.9 mph - N/A   Clear
1:55 AM 75.2 °F 32.0 °F 21% 29.71 in 10.0 mi East 5.8 mph - N/A   Clear
2:15 AM 73.4 °F 33.8 °F 23% 29.71 in 10.0 mi ESE 4.6 mph - N/A   Clear
2:35 AM 75.2 °F 33.8 °F 22% 29.70 in 10.0 mi East 5.8 mph - N/A   Clear
2:55 AM 73.4 °F 33.8 °F 23% 29.69 in 10.0 mi ESE 6.9 mph - N/A   Clear
3:15 AM 73.4 °F 35.6 °F 25% 29.68 in 10.0 mi ESE 4.6 mph - N/A   Clear
3:35 AM 73.4 °F 35.6 °F 25% 29.67 in 10.0 mi ESE 4.6 mph - N/A   Clear
3:55 AM 73.4 °F 35.6 °F 25% 29.67 in 10.0 mi Calm Calm - N/A   Clear
4:15 AM 73.4 °F 35.6 °F 25% 29.67 in 10.0 mi Calm Calm - N/A   Clear
4:35 AM 71.6 °F 35.6 °F 27% 29.67 in 10.0 mi ENE 9.2 mph - N/A   Clear
4:55 AM 73.4 °F 35.6 °F 25% 29.67 in 10.0 mi ENE 9.2 mph - N/A   Clear
5:15 AM 71.6 °F 35.6 °F 27% 29.67 in 10.0 mi ENE 8.1 mph - N/A   Clear
5:35 AM 73.4 °F 35.6 °F 25% 29.67 in 10.0 mi NE 10.4 mph - N/A   Clear
5:55 AM 75.2 °F 35.6 °F 24% 29.67 in 10.0 mi ENE 6.9 mph - N/A   Clear
6:15 AM 73.4 °F 35.6 °F 25% 29.68 in 10.0 mi ENE 3.5 mph - N/A   Clear
6:35 AM 71.6 °F 37.4 °F 29% 29.69 in 10.0 mi Calm Calm - N/A   Clear
6:55 AM 71.6 °F 37.4 °F 29% 29.69 in 10.0 mi Calm Calm - N/A   Clear
7:15 AM 73.4 °F 39.2 °F 29% 29.70 in 10.0 mi ENE 3.5 mph - N/A   Clear
7:35 AM 73.4 °F 41.0 °F 31% 29.70 in 10.0 mi East 4.6 mph - N/A   Clear
7:55 AM 73.4 °F 41.0 °F 31% 29.70 in 10.0 mi East 4.6 mph - N/A   Clear
8:15 AM 75.2 °F 41.0 °F 29% 29.69 in 10.0 mi East 4.6 mph - N/A   Clear
8:35 AM 77.0 °F 41.0 °F 28% 29.69 in 10.0 mi East 11.5 mph - N/A   Clear
8:55 AM 78.8 °F 41.0 °F 26% 29.69 in 10.0 mi East 8.1 mph - N/A   Clear
9:15 AM 78.8 °F 42.8 °F 28% 29.69 in 10.0 mi East 9.2 mph - N/A   Clear
9:35 AM 80.6 °F 42.8 °F 26% 29.69 in 10.0 mi East 9.2 mph - N/A   Clear
9:55 AM 80.6 °F 44.6 °F 28% 29.67 in 10.0 mi East 12.7 mph - N/A   Clear
10:15 AM 84.2 °F 41.0 °F 22% 29.66 in 10.0 mi East 17.3 mph 21.9 mph N/A   Clear
10:35 AM 86.0 °F 39.2 °F 19% 29.65 in 10.0 mi ENE 20.7 mph 24.2 mph N/A   Clear
10:55 AM 86.0 °F 39.2 °F 19% 29.65 in 10.0 mi ENE 16.1 mph 26.5 mph N/A   Clear
11:15 AM 86.0 °F 39.2 °F 19% 29.64 in 10.0 mi East 19.6 mph 25.3 mph N/A   Clear
11:35 AM 86.0 °F 39.2 °F 19% 29.62 in 10.0 mi South 17.3 mph 27.6 mph N/A   Clear
11:55 AM 87.8 °F 39.2 °F 18% 29.62 in 10.0 mi South 18.4 mph 28.8 mph N/A   Clear
12:15 PM 89.6 °F 37.4 °F 16% 29.61 in 10.0 mi SSE 18.4 mph 34.5 mph N/A   Clear
12:35 PM 89.6 °F 37.4 °F 16% 29.60 in 10.0 mi South 17.3 mph 31.1 mph N/A   Clear
12:55 PM 89.6 °F 35.6 °F 15% 29.58 in 10.0 mi SSE 21.9 mph 32.2 mph N/A   Clear
1:15 PM 91.4 °F 35.6 °F 14% 29.57 in 10.0 mi SSE 23.0 mph 27.6 mph N/A   Clear
1:35 PM 91.4 °F 35.6 °F 14% 29.56 in 10.0 mi SSE 18.4 mph 27.6 mph N/A   Clear
1:55 PM 91.4 °F 33.8 °F 13% 29.54 in 10.0 mi South 24.2 mph 28.8 mph N/A   Clear
2:15 PM 93.2 °F 33.8 °F 12% 29.52 in 10.0 mi South 27.6 mph 34.5 mph N/A   Clear
2:35 PM 93.2 °F 32.0 °F 11% 29.52 in 10.0 mi South 25.3 mph 38.0 mph N/A   Clear
2:55 PM 93.2 °F 32.0 °F 11% 29.52 in 10.0 mi South 24.2 mph 28.8 mph N/A   Clear
3:15 PM 93.2 °F 32.0 °F 11% 29.51 in 10.0 mi SSW 24.2 mph 32.2 mph N/A   Clear
3:35 PM 93.2 °F 28.4 °F 10% 29.51 in 10.0 mi SSW 16.1 mph 32.2 mph N/A   Clear
3:55 PM 93.2 °F 30.2 °F 11% 29.50 in 10.0 mi South 21.9 mph 32.2 mph N/A   Clear
4:15 PM 93.2 °F 28.4 °F 10% 29.49 in 10.0 mi South 19.6 mph 28.8 mph N/A   Clear
4:35 PM 95.0 °F 28.4 °F 9% 29.48 in 10.0 mi SSW 23.0 mph 31.1 mph N/A   Clear
4:55 PM 95.0 °F 28.4 °F 9% 29.48 in 10.0 mi SSW 17.3 mph 27.6 mph N/A   Clear
5:15 PM 93.2 °F 28.4 °F 10% 29.47 in 10.0 mi South 21.9 mph 28.8 mph N/A   Clear
5:35 PM 93.2 °F 30.2 °F 11% 29.46 in 10.0 mi South 25.3 mph - N/A   Clear
5:55 PM 93.2 °F 30.2 °F 11% 29.45 in 10.0 mi South 25.3 mph 32.2 mph N/A   Clear
6:15 PM 91.4 °F 32.0 °F 12% 29.46 in 10.0 mi South 19.6 mph 28.8 mph N/A   Clear
6:35 PM 91.4 °F 32.0 °F 12% 29.47 in 10.0 mi South 18.4 mph - N/A   Clear
6:55 PM 89.6 °F 32.0 °F 13% 29.46 in 10.0 mi SSE 19.6 mph 23.0 mph N/A   Clear
7:15 PM 89.6 °F 32.0 °F 13% 29.47 in 10.0 mi SSE 16.1 mph - N/A   Clear
7:35 PM 87.8 °F 32.0 °F 14% 29.47 in 10.0 mi SSE 20.7 mph - N/A   Clear
7:55 PM 87.8 °F 32.0 °F 14% 29.47 in 10.0 mi SSE 19.6 mph 25.3 mph N/A   Clear
8:15 PM 86.0 °F 32.0 °F 14% 29.47 in 10.0 mi SSE 19.6 mph - N/A   Clear
8:35 PM 86.0 °F 32.0 °F 14% 29.48 in 10.0 mi South 19.6 mph - N/A   Clear
8:55 PM 86.0 °F 30.2 °F 13% 29.48 in 10.0 mi SSE 17.3 mph 29.9 mph N/A   Clear
9:15 PM 86.0 °F 28.4 °F 12% 29.48 in 10.0 mi SSE 19.6 mph - N/A   Clear
9:35 PM 84.2 °F 26.6 °F 12% 29.48 in 10.0 mi South 19.6 mph - N/A   Clear
9:55 PM 84.2 °F 26.6 °F 12% 29.48 in 10.0 mi SSE 24.2 mph - N/A   Clear
10:15 PM 84.2 °F 26.6 °F 12% 29.48 in 10.0 mi SSE 27.6 mph 32.2 mph N/A   Clear
10:35 PM 84.2 °F 26.6 °F 12% 29.49 in 10.0 mi SSE 26.5 mph 31.1 mph N/A   Clear
10:55 PM 84.2 °F 26.6 °F 12% 29.50 in 10.0 mi SSE 20.7 mph - N/A   Clear
11:15 PM 82.4 °F 28.4 °F 14% 29.50 in 10.0 mi SSE 19.6 mph 29.9 mph N/A   Clear
11:35 PM 78.8 °F 32.0 °F 18% 29.52 in 10.0 mi SSW 12.7 mph - N/A   Clear
11:55 PM 80.6 °F 30.2 °F 16% 29.52 in 10.0 mi SSW 17.3 mph - N/A   Clear